Regional Weather Roundup
Issued by NWS Northern Indiana

Home | Current Version | Previous Version | Text Only | Print | Product List | Glossary Off
Versions: 1 2 3 4 5 6 7 8 9 10 11 12 13 14 15 16 17 18 19 20 21 22 23 24 25 26 27 28 29 30 31 32 33 34 35 36 37 38 39 40 41 42 43 44 45 46 47 48 49 50

000
ASUS43 KIWX 290900
RWRIWX

KIWX WEATHER ROUNDUP
NATIONAL WEATHER SERVICE NORTHERN INDIANA
500 AM EDT SUN MAR 29 2015

NOTE: "FAIR" INDICATES FEW OR NO CLOUDS BELOW 12,000 FEET WITH NO
SIGNIFICANT WEATHER AND/OR OBSTRUCTIONS TO VISIBILITY.

* THESE STATIONS ARE NOT UNDER NWS QUALITY CONTROL. THEY ALSO MAY NOT
  REPORT WEATHER SUCH AS PRECIPITATION OR FOG.

INZ001>027-291000-
NORTHERN INDIANA

CITY           SKY/WX    TMP DP  RH WIND       PRES   REMARKS
SOUTH BEND     CLEAR     23  13  65 S6        30.24F WCI  16
GOSHEN         CLEAR     25  15  66 S9        30.25F WCI  15
ANGOLA*        CLEAR     18  14  86 CALM      30.25F
FORT WAYNE     CLEAR     23  16  74 S8        30.29F WCI  14

$$
INZ028>050-291000-
CENTRAL INDIANA

CITY           SKY/WX    TMP DP  RH WIND       PRES   REMARKS
LAFAYETTE      CLEAR     26  16  65 S6        30.26F WCI  19
KOKOMO*          N/A     27  18  69 S9        30.28F WCI  17
MUNCIE*        CLEAR     25  14  63 S7        30.30F WCI  17
INDIANAPOLIS   CLEAR     25  15  66 S9        30.28F WCI  15

$$
MIZ043>046-050>051-056>058-064>065-071>073-077>080-291000-
SOUTHWEST LOWER MICHIGAN

CITY           SKY/WX    TMP DP  RH WIND       PRES   REMARKS
BATTLE CREEK   CLEAR     21  12  68 S9        30.23F WCI  11
BENTON HARBOR  PTCLDY    22  14  71 S7        30.22F WCI  13
COLDWATER*     CLEAR     19  14  79 S5        30.24F WCI  13
HILLSDALE*     CLEAR     17  12  83 S5        30.23F WCI  10
HOLLAND        CLEAR     22  11  62 S8        30.21F WCI  12
GRAND RAPIDS   CLEAR     21   9  59 S9        30.21F WCI  11
KALAMAZOO      CLEAR     22  14  71 S6        30.23F WCI  14
STURGIS*       CLEAR     21  12  68 S6        30.24F WCI  14
THREE RIVERS*  FAIR      21  16  80 SW3       30.25F

$$
OHZ001>008-015>018-024>025-291000-
NORTHWEST OHIO

CITY           SKY/WX    TMP DP  RH WIND       PRES   REMARKS
DEFIANCE       CLEAR     22  15  75 S5        30.29F WCI  16
FINDLAY        CLEAR     23  15  71 S7        30.29F WCI  15
TOLEDO EXPRESS CLEAR     24  14  65 SW6       30.29S WCI  17
TOLEDO METCALF FAIR      22  14  71 SW7       30.30F WCI  13
LIMA           CLEAR     25  15  66 S7        30.29F WCI  17

$$
AND FOR LAKE MICHIGAN COASTAL AND OPEN LAKE BUOY OBSERVATIONS

STATION/POSITION TEMP    WIND        PRES    VSBY  WAVE
                 AIR SEA DIR/SP/G                  HT/PER
                 (F)     (DEG/KT/KT) (MB)    (MI)  (FT/S)
MICHIGAN CITY     27     150/ 10/ 14   N/A
BURNS HARBOR      28     180/ 12/ 20 1023.7F
SAINT JOSEPH      25     140/  5/ 10 1024.4F

$$
&&



USA.gov is the U.S. government's official web portal to all federal, state and local government web resources and services.